[[{"header":{"parameterUnit":"m.s-1","parameterCategory":2,"la1":30.2991,"la2":30.254,"lo1":-89.0895,"lo2":-89.0444,"dy":0.0017,"dx":0.0017,"nx":28,"ny":28,"refTime":"2025-03-09T03:00:00:Z","depth":"0","parameterNumber":2,"parameterNumberName":"U-component_of_CURRENTS"},"data":[0,0,0,0,0,0,0,0,0,0,0,0,0,0,0,0,0,0,0,0,0,0,0,0,0,0,0,0,0,0,0,0,0,0,0,0,0,0,0,0,0,0,0,0,0,0,0,0,0,0,0,0,0,0,0,0,0,0,0.3593,0.3594,0,0.3628,0.3627,0.3627,0.3653,0.3654,0.3654,0.3655,0.3616,0.3614,0.3613,0,0,0,0,0,0,0,0,0,0,0,0,0,0.3553,0.3553,0.3593,0.3594,0.3595,0.3628,0.3627,0.3627,0.3653,0.3654,0.3655,0.3656,0.3617,0.3615,0.3613,0,0,0,0,0,0,0,0,0,0,0,0,0,0.3572,0.3553,0.3593,0.3616,0.3619,0.3628,0.3627,0.3627,0.3653,0.3654,0.3655,0.3656,0.3617,0.3615,0.3612,0.3573,0,0,0.3604,0.3603,0,0,0,0,0,0,0,0,0.3571,0.3572,0.3612,0.3615,0.3618,0.3642,0.36,0.3608,0.3652,0.3634,0.3655,0.3657,0.3621,0.3618,0.3615,0.3571,0.357,0.3604,0.3602,0.3601,0.3601,0,0,0,0,0,0,0,0.3569,0.3571,0.3601,0.3613,0.3617,0.3627,0.363,0.3601,0.3614,0.3635,0.3639,0.3652,0.3622,0.3617,0.3614,0.3569,0.3604,0.3602,0.36,0.3599,0.3589,0.359,0,0,0,0,0,0,0.3575,0.357,0.36,0.3602,0.3603,0.3627,0.363,0.3628,0.3617,0.3618,0.3651,0.3653,0.3621,0.3617,0.3613,0.3652,0.3601,0.3599,0.3597,0.3588,0.3589,0.3591,0,0,0,0,0,0,0.3574,0.3577,0.3599,0.3593,0.3597,0.3627,0.3625,0.3629,0.3637,0.363,0.3629,0.3657,0.3622,0.3616,0.3611,0.3647,0.3598,0.3595,0.3586,0.3588,0.359,0.3675,0,0,0,0,0,0,0.3572,0.3576,0.3568,0.3592,0.3598,0.3615,0.3624,0.3629,0.3645,0.3648,0.3635,0.3632,0.3622,0.3615,0.3609,0.3643,0.3593,0.3584,0.3587,0.3589,0.3671,0.368,0.3687,0,0,0,0,0,0.3571,0.3558,0.3567,0.3571,0.3588,0.3616,0.3618,0.364,0.3645,0.3649,0.365,0.3633,0.3627,0.3614,0.3605,0.364,0.3583,0.3586,0.3589,0.3667,0.3678,0.3687,0,0,0,0,0,0,0.3523,0.3561,0.3571,0.3566,0.3596,0.3623,0.3625,0.3641,0.3643,0.3644,0.3634,0.3631,0.3648,0.3623,0.3609,0.3646,0.3608,0.3609,0.367,0.368,0.3688,0.3737,0.3591,0,0,0,0,0,0.3513,0.352,0.3558,0.3553,0.3569,0.3596,0.3607,0.3627,0.3639,0.3642,0.3638,0.3637,0.365,0.3648,0.3644,0.3644,0.3681,0.3666,0.3675,0.3682,0.3718,0.3798,0.3819,0.36,0.36,0.36,0,0,0.3492,0.3515,0.3516,0.3546,0.3565,0.3603,0.3604,0.3627,0.3664,0.3634,0.3662,0.3659,0.3657,0.368,0.3685,0.3664,0.3764,0.3686,0.3692,0.3725,0.3804,0.3826,0.3845,0.3602,0.3602,0.3602,0,0,0.3478,0.3477,0.3494,0.3526,0.3571,0.3595,0.3607,0.3642,0.3661,0.3682,0.3692,0.3721,0.3701,0.3739,0.3749,0.3795,0.3808,0.3782,0.3862,0.3939,0.3959,0.3977,0.4059,0.4084,0.3784,0.3785,0.3785,0,0.3454,0.3484,0.3501,0.3539,0.3573,0.3599,0.364,0.3664,0.3695,0.372,0.37,0.3756,0.3746,0.3825,0.3853,0.382,0.3865,0.3823,0.3954,0.3972,0.3989,0.4069,0.4095,0.3789,0.3789,0.3788,0.3788,0,0.3475,0.3502,0.3513,0.3578,0.361,0.3644,0.3698,0.3725,0.3745,0.3777,0.3844,0.3852,0.3894,0.3898,0.389,0.4008,0.4003,0.3958,0.3935,0.4017,0.4095,0.4121,0.3795,0.3794,0.3793,0.3791,0,0,0.3423,0.3512,0.3519,0.3565,0.3638,0.367,0.3732,0.3804,0.3871,0.389,0.3991,0.4016,0.4031,0.4047,0.4053,0.4129,0.4281,0.4102,0.4104,0.4198,0.4473,0.4402,0.4422,0.426,0.4264,0.4268,0.4484,0,0.3441,0.3517,0.356,0.3639,0.3689,0.3741,0.3807,0.3873,0.3929,0.4028,0.4069,0.4151,0.4084,0.4133,0.4195,0.4266,0.4351,0.4228,0.4369,0.4375,0.4311,0.445,0.4289,0.4462,0.4509,0.4513,0.4516,0,0.3461,0.3515,0.3593,0.3699,0.3726,0.3775,0.3899,0.3964,0.4097,0.4147,0.4231,0.4274,0.4397,0.4334,0.4492,0.4415,0.4463,0.4509,0.4517,0.4445,0.4351,0.4385,0.4507,0.4363,0.4555,0.4552,0.4549,0,0.3445,0.354,0.3604,0.364,0.376,0.3805,0.387,0.3993,0.4071,0.4246,0.4333,0.4448,0.4537,0.4611,0.4666,0.4602,0.486,0.4766,0.4756,0.4751,0.4641,0.4618,0.4653,0.4913,0.4912,0.4911,0.4911,0,0.3467,0.352,0.36,0.3642,0.3736,0.3809,0.3923,0.4018,0.4168,0.4277,0.4391,0.4511,0.4614,0.4743,0.4768,0.4851,0.4926,0.4828,0.4821,0.4663,0.4641,0.4527,0.4464,0.492,0.4918,0.4916,0.4915,0,0.3471,0.3516,0.3596,0.3699,0.3737,0.3805,0.3942,0.4017,0.4171,0.4335,0.4401,0.4603,0.4757,0.4857,0.5022,0.4978,0.4936,0.508,0.4894,0.4859,0.4645,0.4592,0.4522,0.4381,0.5103,0.5103,0.5103,0,0.3489,0.3528,0.3626,0.366,0.371,0.3808,0.3868,0.4011,0.4087,0.4364,0.4436,0.4671,0.4791,0.5022,0.5035,0.5118,0.4952,0.5007,0.4838,0.4667,0.4604,0.4415,0.4286,0.4741,0.4738,0.4736,0.4734,0,0.353,0.355,0.3611,0.3681,0.3732,0.379,0.3881,0.3939,0.4106,0.4246,0.4426,0.4567,0.4801,0.4831,0.4968,0.4975,0.4751,0.4952,0.4834,0.4397,0.414,0.3987,0.4572,0.4711,0.4713,0.4715,0.4716,0.4717,0.3551,0.3587,0.3643,0.3693,0.3733,0.3741,0.3732,0.3821,0.3926,0.4065,0.4296,0.4435,0.4619,0.4773,0.4759,0.4621,0.4584,0.4477,0.4459,0.4306,0.4062,0.4602,0.4675,0.4677,0.4679,0.468,0.4682,0,0.3574,0.3602,0.3647,0.3659,0.3624,0.3681,0.3702,0.3646,0.3669,0.3887,0.4014,0.4199,0.4273,0.4365,0.434,0.4173,0.396,0.4047,0.3749,0.3667,0.4221,0.4092,0.3968,0.3969,0.3969,0.3969,0.3969,0.3969,0.3594,0.3618,0.3611,0.3534,0.3515,0.3402,0.3364,0.3324,0.3406,0.3474,0.3567,0.3742,0.3971,0.4082,0.3928,0.3827,0.3505,0.3364,0.3329,0.3726,0.3763,0.3798,0.366,0.3448,0.3448,0.261,0.2604,0.26]},{"header":{"parameterUnit":"m.s-1","parameterCategory":2,"la1":30.2991,"la2":30.254,"lo1":-89.0895,"lo2":-89.0444,"dy":0.0017,"dx":0.0017,"nx":28,"ny":28,"refTime":"2025-03-09T03:00:00:Z","depth":"0","parameterNumber":3,"parameterNumberName":"V-component_of_CURRENTS"},"data":[0,0,0,0,0,0,0,0,0,0,0,0,0,0,0,0,0,0,0,0,0,0,0,0,0,0,0,0,0,0,0,0,0,0,0,0,0,0,0,0,0,0,0,0,0,0,0,0,0,0,0,0,0,0,0,0,0,0,-0.0031,-0.0031,0,-0.0095,-0.0096,-0.0097,-0.016,-0.016,-0.0161,-0.0162,-0.0262,-0.0264,-0.0266,0,0,0,0,0,0,0,0,0,0,0,0,0,-0.0026,-0.0026,-0.0031,-0.0032,-0.0032,-0.0095,-0.0096,-0.0097,-0.016,-0.016,-0.0161,-0.0162,-0.0261,-0.0264,-0.0266,0,0,0,0,0,0,0,0,0,0,0,0,0,-0.0055,-0.0026,-0.0031,-0.0069,-0.0073,-0.0095,-0.0096,-0.0098,-0.0159,-0.016,-0.0161,-0.0162,-0.026,-0.0263,-0.0266,-0.0267,0,0,-0.0276,-0.0277,0,0,0,0,0,0,0,0,-0.0053,-0.0055,-0.0063,-0.0067,-0.0071,-0.0119,-0.0131,-0.0155,-0.0159,-0.0129,-0.0162,-0.0163,-0.0215,-0.0222,-0.0234,-0.0271,-0.0276,-0.0276,-0.0278,-0.0279,-0.028,0,0,0,0,0,0,0,-0.0051,-0.0053,-0.0058,-0.0064,-0.0069,-0.0105,-0.011,-0.0136,-0.0168,-0.0132,-0.0136,-0.0139,-0.0218,-0.0231,-0.0237,-0.0277,-0.0276,-0.0279,-0.0281,-0.0282,-0.0334,-0.0334,0,0,0,0,0,0,-0.0034,-0.0051,-0.0056,-0.006,-0.0062,-0.0104,-0.011,-0.0104,-0.0167,-0.0177,-0.0139,-0.0142,-0.0225,-0.0234,-0.0241,-0.025,-0.0279,-0.0282,-0.0284,-0.0335,-0.0334,-0.0334,0,0,0,0,0,0,-0.0034,-0.0034,-0.0054,-0.0056,-0.0061,-0.0103,-0.0096,-0.0105,-0.0116,-0.0172,-0.0183,-0.014,-0.0227,-0.0237,-0.0257,-0.0254,-0.0284,-0.0287,-0.0335,-0.0335,-0.0334,-0.0264,0,0,0,0,0,0,-0.0033,-0.0033,-0.0025,-0.0054,-0.006,-0.0054,-0.0096,-0.0105,-0.0116,-0.0121,-0.0177,-0.0187,-0.0228,-0.0251,-0.026,-0.0259,-0.0289,-0.0336,-0.0335,-0.0334,-0.0267,-0.0261,-0.0256,0,0,0,0,0,-0.0033,-0.0008,-0.0024,-0.0025,-0.0046,-0.0052,-0.0058,-0.0094,-0.0114,-0.0109,-0.0149,-0.0185,-0.0252,-0.0253,-0.0263,-0.0263,-0.0336,-0.0335,-0.0334,-0.0269,-0.0262,-0.0256,0,0,0,0,0,0,0.0003,-0.0012,-0.0031,-0.0011,-0.0027,-0.0062,-0.006,-0.0084,-0.0111,-0.0117,-0.0174,-0.0186,-0.0206,-0.0238,-0.0238,-0.0275,-0.0302,-0.0303,-0.025,-0.0243,-0.0238,-0.0225,-0.0292,0,0,0,0,0,0.0015,0.0026,0.0003,0.0018,0.0013,-0.0023,-0.003,-0.0051,-0.0078,-0.0092,-0.013,-0.0173,-0.0209,-0.0227,-0.026,-0.0274,-0.0282,-0.0282,-0.0277,-0.0272,-0.0268,-0.0274,-0.0268,-0.033,-0.033,-0.033,0,0,0.0032,0.0026,0.0031,0.0025,0.0007,0.001,-0.003,-0.003,-0.0036,-0.0097,-0.0112,-0.0151,-0.0206,-0.0227,-0.0239,-0.0254,-0.0252,-0.027,-0.0266,-0.0265,-0.0272,-0.0266,-0.0261,-0.0329,-0.033,-0.033,0,0,0.0073,0.0067,0.0086,0.0079,0.0064,0.0043,0.0049,0.0021,0.0,-0.0012,-0.0065,-0.0099,-0.0143,-0.0189,-0.0218,-0.02,-0.0221,-0.0209,-0.0174,-0.018,-0.0174,-0.017,-0.0143,-0.0137,-0.0209,-0.0209,-0.0209,0,0.0092,0.0111,0.0092,0.0106,0.0103,0.0064,0.008,0.0057,0.0026,0.0016,-0.0006,-0.0074,-0.013,-0.0162,-0.0168,-0.0189,-0.0178,-0.0194,-0.0171,-0.0167,-0.0164,-0.0138,-0.0132,-0.0205,-0.0206,-0.0206,-0.0206,0,0.014,0.0153,0.0167,0.0167,0.0165,0.0176,0.0145,0.0138,0.0111,0.0085,0.0059,-0.0009,-0.0051,-0.0078,-0.0125,-0.0133,-0.0125,-0.0159,-0.0184,-0.0153,-0.0128,-0.0123,-0.02,-0.0201,-0.0202,-0.0203,0,0,0.0187,0.0198,0.0202,0.0212,0.0199,0.0207,0.0202,0.019,0.0203,0.0153,0.0176,0.0071,0.0039,0.0004,-0.0055,-0.0075,-0.0052,-0.0103,-0.0105,-0.0068,-0.0025,-0.0024,-0.0018,-0.0072,-0.0072,-0.0071,-0.0006,0,0.0226,0.0269,0.026,0.0295,0.0312,0.028,0.0287,0.0271,0.0254,0.0272,0.0193,0.0193,0.0069,0.0073,0.002,-0.0017,-0.0039,-0.0064,-0.0068,-0.0068,-0.0065,-0.0014,-0.0021,0.0036,-0.0001,-0.0,0.0,0,0.0269,0.0293,0.0339,0.0361,0.0368,0.0386,0.0402,0.0408,0.0404,0.0398,0.0365,0.0328,0.0281,0.0193,0.0106,0.0106,0.0036,-0.0005,-0.0004,-0.0027,-0.0059,-0.0009,0.0046,-0.0176,0.0008,0.0007,0.0006,0,0.031,0.0345,0.0387,0.0394,0.0416,0.0435,0.045,0.045,0.0506,0.0506,0.0582,0.047,0.0507,0.0367,0.0246,0.0192,0.0197,0.0109,0.0042,0.0043,0.0021,0.0018,-0.0138,0.0048,0.0048,0.0047,0.0047,0,0.0352,0.0384,0.0417,0.0441,0.0521,0.0501,0.0594,0.0589,0.0657,0.0789,0.0667,0.0782,0.0559,0.0532,0.0343,0.0236,0.0262,0.0068,0.0059,0.0048,0.0047,-0.0162,-0.03,0.005,0.0049,0.0049,0.0048,0,0.0401,0.0407,0.0474,0.0519,0.0549,0.0613,0.0739,0.0823,0.0852,0.1042,0.1074,0.1067,0.1028,0.0805,0.0645,0.0427,0.0159,0.0227,0.0245,0.0235,-0.0087,-0.0219,-0.036,-0.0458,0.015,0.015,0.015,0,0.0436,0.0475,0.0566,0.0647,0.0682,0.0786,0.0886,0.0927,0.1061,0.1251,0.1389,0.1405,0.1473,0.1218,0.0822,0.0506,0.0253,0.0275,0.0124,-0.0088,-0.0242,-0.0338,-0.0419,0.014,0.0141,0.0141,0.0141,0,0.0538,0.0569,0.0643,0.0809,0.0927,0.1065,0.122,0.1354,0.1469,0.1643,0.1894,0.1968,0.1732,0.1422,0.0951,0.0695,0.0101,0.0269,0.0036,-0.0271,-0.0372,-0.0473,0.01,0.0143,0.0142,0.0142,0.0142,0.0142,0.065,0.0737,0.0859,0.101,0.1156,0.1355,0.1493,0.1693,0.1941,0.2225,0.2281,0.2442,0.1922,0.1283,0.0909,0.0156,0.0141,-0.0098,-0.0234,-0.0305,-0.0439,0.0154,0.0183,0.0183,0.0183,0.0183,0.0183,0,0.0817,0.0912,0.1066,0.1254,0.1437,0.1471,0.1735,0.1894,0.2211,0.2487,0.2698,0.2552,0.1924,0.1232,0.0213,-0.0274,-0.048,-0.0546,-0.072,-0.0776,-0.0251,-0.0296,-0.0353,-0.0353,-0.0353,-0.0353,-0.0353,-0.0352,0.0926,0.1098,0.1158,0.1472,0.1607,0.1843,0.199,0.2239,0.2466,0.2787,0.2901,0.2961,0.2355,0.0627,-0.0519,-0.077,-0.1136,-0.12,-0.1361,-0.1061,-0.1031,-0.1002,-0.1078,-0.1298,-0.13,-0.1833,-0.1839,-0.1843]}],[{"header":{"parameterUnit":"m.s-1","parameterCategory":2,"la1":30.2991,"la2":30.254,"lo1":-89.0895,"lo2":-89.0444,"dy":0.0017,"dx":0.0017,"nx":28,"ny":28,"refTime":"2025-03-09T03:00:00:Z","depth":"2","parameterNumber":2,"parameterNumberName":"U-component_of_CURRENTS"},"data":[0,0,0,0,0,0,0,0,0,0,0,0,0,0,0,0,0,0,0,0,0,0,0,0,0,0,0,0,0,0,0,0,0,0,0,0,0,0,0,0,0,0,0,0,0,0,0,0,0,0,0,0,0,0,0,0,0,0,0.2767,0.2768,0,0.2811,0.2812,0.2812,0.2822,0.2822,0.2822,0.2822,0.284,0.2841,0.2841,0,0,0,0,0,0,0,0,0,0,0,0,0,0.2704,0.2705,0.2767,0.2768,0.2769,0.2811,0.2812,0.2812,0.2822,0.2822,0.2822,0.2822,0.284,0.2841,0.2841,0,0,0,0,0,0,0,0,0,0,0,0,0,0.2735,0.2705,0.2767,0.2781,0.2783,0.2811,0.2812,0.2812,0.2822,0.2822,0.2822,0.2822,0.284,0.2841,0.2841,0.2846,0,0,0.2844,0.2844,0,0,0,0,0,0,0,0,0.2733,0.2737,0.2778,0.278,0.2783,0.2814,0.2796,0.2823,0.2822,0.2804,0.2822,0.2822,0.2831,0.2833,0.2837,0.2847,0.2848,0.2844,0.2844,0.2845,0.2845,0,0,0,0,0,0,0,0.2731,0.2735,0.2781,0.2779,0.2782,0.279,0.2794,0.2801,0.2814,0.2805,0.2807,0.2817,0.2832,0.2836,0.2837,0.2848,0.2844,0.2844,0.2845,0.2845,0.2923,0.2924,0,0,0,0,0,0,0.2732,0.2733,0.278,0.2783,0.2761,0.2792,0.2796,0.2801,0.2815,0.2818,0.2817,0.2818,0.2835,0.2836,0.2838,0.2891,0.2845,0.2845,0.2846,0.2921,0.2923,0.2925,0,0,0,0,0,0,0.273,0.2735,0.2778,0.2762,0.2768,0.2793,0.2799,0.2802,0.282,0.2824,0.2826,0.2833,0.2835,0.2837,0.2864,0.289,0.2846,0.2846,0.2919,0.2922,0.2924,0.2968,0,0,0,0,0,0,0.2728,0.2734,0.2742,0.2762,0.2769,0.2805,0.2799,0.2803,0.2827,0.2828,0.2839,0.2839,0.2835,0.2863,0.2865,0.289,0.2847,0.2917,0.292,0.2923,0.2964,0.2971,0.2977,0,0,0,0,0,0.2725,0.2734,0.2741,0.2748,0.2777,0.2806,0.281,0.2825,0.2828,0.2839,0.2853,0.284,0.2884,0.2865,0.2867,0.2893,0.2916,0.292,0.2923,0.2961,0.297,0.2977,0,0,0,0,0,0,0.2706,0.2737,0.2745,0.2761,0.2788,0.2809,0.2824,0.2834,0.2854,0.2858,0.2857,0.2859,0.2896,0.2891,0.287,0.2927,0.2899,0.2903,0.2928,0.2936,0.2942,0.2956,0.2847,0,0,0,0,0,0.2707,0.2722,0.2753,0.2766,0.2783,0.2806,0.2821,0.2835,0.2855,0.2864,0.2873,0.2888,0.2911,0.292,0.2935,0.2961,0.2987,0.2981,0.2988,0.2993,0.3007,0.3076,0.3091,0.2937,0.2937,0.2937,0,0,0.2701,0.2722,0.273,0.2764,0.2785,0.2813,0.2814,0.2845,0.2871,0.2862,0.2898,0.2912,0.2924,0.2959,0.2974,0.2957,0.3052,0.2998,0.3002,0.3013,0.3082,0.3097,0.311,0.2939,0.2939,0.2939,0,0,0.2701,0.2721,0.2736,0.2764,0.2806,0.2825,0.2838,0.2872,0.2891,0.2926,0.2935,0.2971,0.2989,0.3014,0.3025,0.3079,0.3087,0.308,0.312,0.3187,0.32,0.3212,0.3267,0.3284,0.3079,0.3079,0.3079,0,0.2695,0.2718,0.2745,0.2774,0.28,0.2833,0.2861,0.2888,0.2926,0.2951,0.2944,0.3014,0.3021,0.3079,0.3099,0.3095,0.313,0.3084,0.3196,0.3208,0.322,0.3274,0.3291,0.3082,0.3082,0.3081,0.3081,0,0.2708,0.2734,0.2749,0.2795,0.2827,0.2858,0.2904,0.2938,0.2965,0.2994,0.306,0.3082,0.3127,0.3134,0.3131,0.3217,0.3215,0.3198,0.3174,0.3238,0.329,0.3308,0.3086,0.3085,0.3084,0.3083,0,0,0.2676,0.2744,0.2749,0.2777,0.2844,0.2869,0.2926,0.2985,0.3038,0.3072,0.3145,0.3182,0.3206,0.3224,0.3234,0.3286,0.3395,0.3279,0.3281,0.3331,0.3546,0.3474,0.3486,0.3399,0.3402,0.3405,0.3551,0,0.2679,0.2726,0.2764,0.2815,0.2847,0.2904,0.2957,0.3019,0.3078,0.3158,0.3201,0.3272,0.3237,0.3279,0.3325,0.339,0.3444,0.3357,0.3479,0.3483,0.3409,0.3505,0.3221,0.3321,0.3568,0.3571,0.3573,0,0.2677,0.2713,0.2757,0.2837,0.2858,0.2897,0.3,0.3054,0.3171,0.3228,0.3305,0.335,0.3445,0.3408,0.3538,0.3487,0.3524,0.3557,0.3563,0.3494,0.3444,0.3297,0.3344,0.3603,0.36,0.3598,0.3596,0,0.2637,0.2708,0.274,0.2766,0.286,0.29,0.2959,0.3072,0.3146,0.3289,0.3367,0.3466,0.355,0.3607,0.3663,0.3622,0.3806,0.3756,0.3723,0.3718,0.3499,0.3469,0.3854,0.3854,0.3853,0.3853,0.3852,0,0.2622,0.2651,0.2724,0.2744,0.2806,0.2882,0.2973,0.3057,0.3203,0.3296,0.3401,0.3496,0.3609,0.371,0.3728,0.379,0.386,0.376,0.3763,0.3505,0.3476,0.3729,0.3712,0.3858,0.3857,0.3856,0.3855,0,0.2575,0.2619,0.2661,0.2752,0.2786,0.2831,0.2977,0.3051,0.3195,0.333,0.3386,0.3573,0.3702,0.3788,0.392,0.3883,0.394,0.3936,0.3624,0.3586,0.379,0.3774,0.3928,0.3926,0.3926,0.3925,0.3924,0,0.2555,0.2568,0.265,0.2681,0.2724,0.2809,0.2876,0.303,0.3113,0.3348,0.3404,0.3605,0.3701,0.3877,0.3874,0.3922,0.3964,0.367,0.3531,0.3817,0.3804,0.3789,0.3775,0.3264,0.3258,0.3253,0.3249,0,0.2527,0.2549,0.2589,0.2637,0.2696,0.276,0.2863,0.2927,0.3101,0.3222,0.3378,0.3487,0.367,0.361,0.3693,0.3664,0.3637,0.3572,0.3983,0.3282,0.32,0.3184,0.3191,0.3205,0.3209,0.3213,0.3215,0.3217,0.2511,0.2514,0.2554,0.2588,0.265,0.268,0.2692,0.2805,0.2904,0.3022,0.3211,0.327,0.3366,0.3347,0.3274,0.3221,0.3456,0.3292,0.3303,0.332,0.3211,0.3131,0.3103,0.3106,0.3109,0.3112,0.3114,0,0.2466,0.2473,0.2508,0.2521,0.2523,0.26,0.2656,0.2623,0.2662,0.2813,0.2912,0.2743,0.2759,0.2839,0.2704,0.2729,0.2659,0.2612,0.2487,0.2536,0.2578,0.2424,0.2111,0.2107,0.2103,0.21,0,0,0.2448,0.2434,0.2426,0.238,0.2402,0.2361,0.2362,0.2313,0.2356,0.235,0.2374,0.2615,0.2763,0.2384,0.2366,0.2209,0.2338,0.2125,0.2942,0.2844,0.288,0.3,0.2824,0,0,0,0,0]},{"header":{"parameterUnit":"m.s-1","parameterCategory":2,"la1":30.2991,"la2":30.254,"lo1":-89.0895,"lo2":-89.0444,"dy":0.0017,"dx":0.0017,"nx":28,"ny":28,"refTime":"2025-03-09T03:00:00:Z","depth":"2","parameterNumber":3,"parameterNumberName":"V-component_of_CURRENTS"},"data":[0,0,0,0,0,0,0,0,0,0,0,0,0,0,0,0,0,0,0,0,0,0,0,0,0,0,0,0,0,0,0,0,0,0,0,0,0,0,0,0,0,0,0,0,0,0,0,0,0,0,0,0,0,0,0,0,0,0,0.0107,0.0107,0,0.0041,0.004,0.0039,-0.0006,-0.0006,-0.0006,-0.0006,-0.0093,-0.0095,-0.0097,0,0,0,0,0,0,0,0,0,0,0,0,0,0.0135,0.0135,0.0107,0.0107,0.0106,0.0041,0.004,0.0039,-0.0006,-0.0006,-0.0006,-0.0006,-0.0092,-0.0095,-0.0097,0,0,0,0,0,0,0,0,0,0,0,0,0,0.01,0.0135,0.0107,0.0078,0.0074,0.0041,0.004,0.0038,-0.0005,-0.0006,-0.0006,-0.0006,-0.0091,-0.0094,-0.0098,-0.0114,0,0,-0.0108,-0.0109,0,0,0,0,0,0,0,0,0.0102,0.0098,0.0083,0.008,0.0076,0.0028,0.0018,-0.0013,-0.0005,0.0023,-0.0006,-0.0006,-0.0053,-0.006,-0.0074,-0.0118,-0.0122,-0.0108,-0.011,-0.0112,-0.0112,0,0,0,0,0,0,0,0.0104,0.0101,0.0079,0.0082,0.0078,0.0047,0.0042,0.0011,-0.0015,0.002,0.0017,0.0013,-0.0055,-0.0071,-0.0077,-0.0123,-0.0108,-0.0111,-0.0113,-0.0114,-0.0179,-0.0179,0,0,0,0,0,0,0.012,0.0103,0.0081,0.0077,0.0091,0.0047,0.0041,0.0042,-0.0015,-0.0023,0.0013,0.0011,-0.0065,-0.0073,-0.008,-0.0081,-0.0111,-0.0115,-0.0116,-0.0179,-0.0179,-0.0179,0,0,0,0,0,0,0.0121,0.0119,0.0084,0.009,0.0084,0.0047,0.0048,0.004,0.0029,-0.0019,-0.0028,0.001,-0.0066,-0.0075,-0.0099,-0.0086,-0.0116,-0.0119,-0.0179,-0.0179,-0.0179,-0.0098,0,0,0,0,0,0,0.0122,0.012,0.0123,0.0091,0.0084,0.0076,0.0048,0.0039,0.0027,0.0024,-0.0025,-0.0034,-0.0066,-0.0093,-0.0102,-0.0091,-0.0122,-0.018,-0.0179,-0.0179,-0.0101,-0.0095,-0.009,0,0,0,0,0,0.0123,0.0136,0.0124,0.0121,0.0091,0.0077,0.007,0.0041,0.0027,0.0028,-0.0005,-0.0032,-0.0097,-0.0096,-0.0106,-0.0095,-0.018,-0.0179,-0.0179,-0.0104,-0.0096,-0.009,0,0,0,0,0,0,0.0149,0.0132,0.0118,0.0124,0.0106,0.007,0.0068,0.0048,0.0021,0.0018,-0.0029,-0.004,-0.0057,-0.0089,-0.0086,-0.0114,-0.0143,-0.0144,-0.0082,-0.0076,-0.007,-0.0046,-0.0124,0,0,0,0,0,0.0157,0.0162,0.0138,0.0142,0.0137,0.0102,0.0092,0.0075,0.0048,0.0036,0.0002,-0.0035,-0.0063,-0.0078,-0.011,-0.0124,-0.0155,-0.0125,-0.0119,-0.0114,-0.0102,-0.0137,-0.0133,-0.0177,-0.0177,-0.0177,0,0,0.0167,0.0159,0.0161,0.0147,0.0129,0.0136,0.0096,0.009,0.0094,0.0031,0.0025,-0.0017,-0.0064,-0.0078,-0.0089,-0.0101,-0.0119,-0.0113,-0.0108,-0.0099,-0.0136,-0.0132,-0.0128,-0.0176,-0.0176,-0.0176,0,0,0.0199,0.0185,0.0202,0.0194,0.0179,0.0161,0.0165,0.0135,0.0121,0.0106,0.0064,0.0035,-0.0012,-0.0038,-0.0059,-0.0042,-0.0089,-0.0057,-0.0007,-0.004,-0.0037,-0.0034,-0.0069,-0.007,-0.0052,-0.0052,-0.0052,0,0.0211,0.0233,0.0204,0.0221,0.0225,0.018,0.0205,0.0184,0.015,0.0146,0.0116,0.0052,0.001,-0.0002,0.0,-0.0027,-0.0057,-0.0025,-0.0031,-0.0029,-0.0028,-0.0065,-0.0067,-0.0048,-0.0048,-0.0049,-0.0049,0,0.0259,0.0275,0.0286,0.0296,0.0294,0.0307,0.0282,0.0275,0.0248,0.0224,0.02,0.0136,0.0102,0.0079,0.0042,0.0035,0.0007,-0.002,-0.0043,-0.0018,-0.0059,-0.0063,-0.0042,-0.0044,-0.0045,-0.0046,0,0,0.0293,0.0317,0.0321,0.0347,0.0339,0.0349,0.0356,0.0355,0.037,0.0314,0.0325,0.0256,0.0214,0.0188,0.0135,0.01,0.0077,0.005,0.0047,0.0025,0.0001,-0.0028,-0.0036,0.0048,0.0048,0.0048,-0.0033,0,0.0341,0.0401,0.0394,0.045,0.0482,0.0453,0.0467,0.0456,0.0433,0.0429,0.0355,0.0336,0.0258,0.0243,0.0196,0.0111,0.0071,0.0101,-0.0029,-0.0033,-0.0053,-0.0039,-0.0011,-0.0081,-0.0037,-0.0037,-0.0038,0,0.0392,0.043,0.0497,0.0543,0.0554,0.0573,0.0599,0.0609,0.0582,0.0564,0.0525,0.046,0.0402,0.0331,0.0198,0.022,0.012,0.0044,0.0039,-0.0016,-0.0068,-0.0101,-0.009,-0.0044,-0.0044,-0.0043,-0.0043,0,0.0445,0.0503,0.0565,0.058,0.0617,0.0638,0.0655,0.0647,0.068,0.0652,0.0664,0.057,0.0537,0.04,0.023,0.0215,0.0081,0.004,-0.0082,-0.0085,-0.01,-0.0105,-0.0053,-0.0053,-0.0053,-0.0052,-0.0052,0,0.0506,0.0555,0.0596,0.0631,0.0707,0.0704,0.0775,0.0774,0.0794,0.0844,0.074,0.0752,0.0553,0.0444,0.0273,0.009,0.011,-0.0067,-0.0104,-0.0073,-0.0074,-0.0074,-0.0075,-0.0055,-0.0055,-0.0054,-0.0054,0,0.0555,0.058,0.0659,0.0713,0.0736,0.079,0.0869,0.0924,0.0922,0.0985,0.0981,0.0898,0.0754,0.0541,0.0325,0.0163,-0.0022,-0.0095,-0.0047,-0.0078,-0.0178,-0.0175,-0.0234,-0.0236,-0.0237,-0.0238,-0.0239,0,0.0588,0.0631,0.0722,0.0776,0.0805,0.0886,0.0946,0.0984,0.1055,0.1076,0.1118,0.1002,0.0937,0.0608,0.0304,0.0007,-0.0031,-0.0165,-0.0192,-0.0164,-0.0195,-0.0189,-0.0184,-0.0185,-0.0186,-0.0186,-0.0186,0,0.0648,0.0673,0.074,0.085,0.0928,0.1036,0.1126,0.1202,0.1249,0.1298,0.1333,0.128,0.097,0.0682,0.0275,0.007,-0.0118,-0.0182,-0.0159,-0.0141,-0.0124,-0.0153,-0.0148,-0.0189,-0.0189,-0.0189,-0.0189,-0.0189,0.0687,0.0741,0.0819,0.0926,0.1029,0.1157,0.1252,0.1356,0.1472,0.1541,0.1488,0.1419,0.1087,0.0574,0.0221,-0.0148,-0.0136,-0.0265,-0.0261,-0.0258,-0.0235,-0.0221,-0.0301,-0.0301,-0.0302,-0.0302,-0.0302,0,0.0731,0.0789,0.0889,0.1017,0.1136,0.1189,0.1354,0.1443,0.1581,0.1643,0.166,0.1335,0.1013,0.0633,0.009,-0.0238,-0.026,-0.0342,-0.0291,-0.0285,-0.0281,-0.0258,-0.0331,-0.0332,-0.0333,-0.0333,0,0,0.0753,0.0842,0.089,0.1073,0.1176,0.134,0.1443,0.1562,0.1646,0.1703,0.1676,0.1592,0.1135,0.074,0.0294,-0.0013,-0.0074,-0.008,-0.0022,0.0097,0.0105,-0.0204,-0.0159,0,0,0,0,0]}],[{"header":{"parameterUnit":"m.s-1","parameterCategory":2,"la1":30.2991,"la2":30.254,"lo1":-89.0895,"lo2":-89.0444,"dy":0.0017,"dx":0.0017,"nx":28,"ny":28,"refTime":"2025-03-09T03:00:00:Z","depth":"4","parameterNumber":2,"parameterNumberName":"U-component_of_CURRENTS"},"data":[0,0,0,0,0,0,0,0,0,0,0,0,0,0,0,0,0,0,0,0,0,0,0,0,0,0,0,0,0,0,0,0,0,0,0,0,0,0,0,0,0,0,0,0,0,0,0,0,0,0,0,0,0,0,0,0,0,0,0.177,0.1771,0,0.1848,0.1848,0.1849,0.1911,0.1911,0.1912,0.1913,0.2001,0.2002,0.2004,0,0,0,0,0,0,0,0,0,0,0,0,0,0.1677,0.1678,0.177,0.1771,0.1773,0.1848,0.1848,0.1849,0.191,0.1911,0.1912,0.1913,0.2,0.2002,0.2004,0,0,0,0,0,0,0,0,0,0,0,0,0,0.173,0.1679,0.177,0.1814,0.1818,0.1847,0.1848,0.185,0.191,0.1911,0.1913,0.1914,0.2,0.2002,0.2004,0.1995,0,0,0.2012,0.2013,0,0,0,0,0,0,0,0,0.1727,0.1733,0.1806,0.1811,0.1816,0.1872,0.1848,0.1899,0.191,0.1873,0.1913,0.1914,0.1959,0.1965,0.1974,0.1999,0.2003,0.2012,0.2013,0.2014,0.2015,0,0,0,0,0,0,0,0.1723,0.1731,0.1799,0.1807,0.1813,0.183,0.1838,0.1858,0.1907,0.1877,0.1882,0.1893,0.1962,0.1971,0.1976,0.2004,0.2012,0.2014,0.2015,0.2016,0.2144,0.2145,0,0,0,0,0,0,0.1717,0.1727,0.1797,0.1802,0.1776,0.1831,0.184,0.1852,0.1907,0.1917,0.1892,0.1896,0.1967,0.1974,0.198,0.2073,0.2014,0.2016,0.2018,0.2142,0.2144,0.2146,0,0,0,0,0,0,0.1714,0.1722,0.1794,0.1768,0.1778,0.1831,0.1843,0.1852,0.1902,0.1919,0.1929,0.1937,0.1968,0.1976,0.2036,0.2073,0.2018,0.202,0.2139,0.2142,0.2145,0.2195,0,0,0,0,0,0,0.1711,0.1721,0.1745,0.1767,0.1779,0.1835,0.1843,0.1853,0.1906,0.1912,0.196,0.1967,0.197,0.2032,0.2038,0.2075,0.2022,0.2137,0.2141,0.2144,0.2191,0.2199,0.2206,0,0,0,0,0,0.1708,0.1729,0.1746,0.1755,0.1805,0.1837,0.1845,0.1885,0.1907,0.1933,0.1972,0.1968,0.206,0.2036,0.2042,0.2081,0.2135,0.214,0.2144,0.2187,0.2198,0.2206,0,0,0,0,0,0,0.1703,0.1738,0.1757,0.179,0.1824,0.1849,0.1884,0.1906,0.1956,0.1977,0.199,0.2,0.2066,0.2069,0.2042,0.213,0.2098,0.2104,0.2129,0.2138,0.2146,0.2145,0.2024,0,0,0,0,0,0.1711,0.174,0.1771,0.1803,0.1824,0.1861,0.1888,0.1915,0.1952,0.1978,0.201,0.2048,0.2082,0.2108,0.2135,0.2181,0.2194,0.2212,0.222,0.2226,0.2232,0.2291,0.2304,0.216,0.216,0.216,0,0,0.1718,0.1744,0.1762,0.1806,0.1839,0.187,0.1882,0.1934,0.1969,0.1978,0.2051,0.2079,0.2101,0.2156,0.2185,0.2168,0.2276,0.2232,0.2237,0.2239,0.2297,0.2311,0.2323,0.2163,0.2163,0.2162,0,0,0.1732,0.1773,0.1797,0.1829,0.1885,0.1906,0.1929,0.1978,0.2017,0.2077,0.2097,0.2151,0.2202,0.2225,0.224,0.2308,0.2315,0.2325,0.2364,0.2422,0.2434,0.2444,0.2481,0.2494,0.2328,0.2328,0.2328,0,0.1744,0.1774,0.1811,0.1842,0.1874,0.1925,0.1957,0.1999,0.2064,0.21,0.2112,0.2212,0.2231,0.2293,0.2319,0.2325,0.2356,0.2323,0.2431,0.2442,0.2452,0.2487,0.2501,0.2331,0.2331,0.233,0.233,0,0.176,0.1802,0.1823,0.1877,0.1916,0.1958,0.2011,0.2069,0.2123,0.2159,0.225,0.2284,0.2344,0.236,0.236,0.2445,0.2444,0.2433,0.2404,0.247,0.2502,0.2516,0.2335,0.2334,0.2333,0.2332,0,0,0.1736,0.1818,0.1829,0.1862,0.1941,0.197,0.2045,0.2116,0.2179,0.2247,0.2324,0.2383,0.242,0.244,0.2459,0.2506,0.2601,0.2508,0.251,0.2538,0.2731,0.2552,0.2549,0.262,0.2623,0.2625,0.2724,0,0.1741,0.1795,0.1839,0.1903,0.1935,0.2011,0.2074,0.2152,0.2229,0.2318,0.2374,0.2458,0.2446,0.2498,0.2542,0.2596,0.2642,0.2575,0.2668,0.2671,0.2498,0.256,0.2634,0.2734,0.2738,0.274,0.2742,0,0.1732,0.1773,0.183,0.1921,0.1946,0.1999,0.2119,0.2184,0.2312,0.238,0.2472,0.2528,0.2622,0.2601,0.2718,0.2684,0.2715,0.274,0.2744,0.2567,0.2517,0.2656,0.2767,0.2765,0.2763,0.2761,0.276,0,0.1676,0.1764,0.1812,0.1842,0.1952,0.201,0.2081,0.2208,0.2286,0.2439,0.2517,0.2623,0.2705,0.2763,0.2819,0.2793,0.2934,0.2899,0.2761,0.2749,0.2858,0.2845,0.2977,0.2977,0.2977,0.2977,0.2976,0,0.1641,0.1684,0.1799,0.1824,0.1902,0.1992,0.21,0.2192,0.234,0.2428,0.2553,0.2632,0.2758,0.2844,0.2866,0.2854,0.2976,0.2776,0.2765,0.2876,0.2865,0.2868,0.2854,0.298,0.2979,0.2979,0.2978,0,0.1566,0.1641,0.1705,0.1831,0.1877,0.1938,0.2104,0.2176,0.2333,0.2456,0.2516,0.2686,0.2787,0.2877,0.2985,0.2901,0.2917,0.2883,0.3007,0.3001,0.2682,0.267,0.2728,0.2722,0.2718,0.2714,0.2711,0,0.1526,0.1554,0.1695,0.1739,0.1804,0.1914,0.1987,0.2157,0.2233,0.2455,0.2493,0.2666,0.2751,0.276,0.2861,0.2892,0.2855,0.2841,0.2737,0.2673,0.2659,0.2654,0.2648,0.2703,0.2702,0.2701,0.27,0,0.1451,0.1522,0.1577,0.1668,0.1751,0.1829,0.1945,0.199,0.2175,0.2344,0.2421,0.248,0.2585,0.2649,0.2702,0.2712,0.2834,0.2792,0.28,0.2702,0.2644,0.2633,0.2633,0.2684,0.2686,0.2688,0.2689,0,0.1404,0.1424,0.1509,0.1575,0.1667,0.17,0.1783,0.1868,0.1965,0.2202,0.2223,0.2394,0.2557,0.2558,0.2603,0.2604,0.2552,0.2455,0.2479,0.2498,0.2374,0.2264,0.2185,0,0,0,0,0,0.1344,0.1349,0.1404,0.1459,0.1543,0.1595,0.173,0.1817,0.1998,0.1996,0.2105,0.2188,0.2257,0.2351,0.2305,0.2493,0.2558,0.2427,0.2457,0.2595,0.2614,0.2487,0,0,0,0,0,0,0.1299,0.1345,0.136,0.1344,0.1359,0.1432,0.1509,0.1635,0.1646,0.1842,0.1897,0.2047,0.2154,0.226,0.2261,0.2288,0.2258,0.2542,0.2536,0.2585,0.2602,0.2616,0.2492,0,0,0,0,0]},{"header":{"parameterUnit":"m.s-1","parameterCategory":2,"la1":30.2991,"la2":30.254,"lo1":-89.0895,"lo2":-89.0444,"dy":0.0017,"dx":0.0017,"nx":28,"ny":28,"refTime":"2025-03-09T03:00:00:Z","depth":"4","parameterNumber":3,"parameterNumberName":"V-component_of_CURRENTS"},"data":[0,0,0,0,0,0,0,0,0,0,0,0,0,0,0,0,0,0,0,0,0,0,0,0,0,0,0,0,0,0,0,0,0,0,0,0,0,0,0,0,0,0,0,0,0,0,0,0,0,0,0,0,0,0,0,0,0,0,0.0113,0.0112,0,0.0066,0.0066,0.0065,0.0036,0.0036,0.0036,0.0036,-0.0027,-0.0029,-0.003,0,0,0,0,0,0,0,0,0,0,0,0,0,0.0133,0.0133,0.0113,0.0112,0.0112,0.0066,0.0066,0.0065,0.0036,0.0036,0.0036,0.0036,-0.0026,-0.0028,-0.003,0,0,0,0,0,0,0,0,0,0,0,0,0,0.0108,0.0133,0.0113,0.0093,0.0091,0.0067,0.0066,0.0065,0.0036,0.0036,0.0036,0.0036,-0.0026,-0.0028,-0.0031,-0.0045,0,0,-0.0038,-0.0039,0,0,0,0,0,0,0,0,0.011,0.0107,0.0096,0.0094,0.0092,0.0058,0.005,0.0028,0.0036,0.0055,0.0036,0.0036,0.0001,-0.0004,-0.0014,-0.0048,-0.0051,-0.0038,-0.004,-0.0041,-0.0042,0,0,0,0,0,0,0,0.0111,0.0109,0.0093,0.0096,0.0093,0.0072,0.0069,0.0045,0.0028,0.0054,0.0052,0.0049,-0.0001,-0.0012,-0.0016,-0.0052,-0.0038,-0.0041,-0.0042,-0.0043,-0.0093,-0.0093,0,0,0,0,0,0,0.0122,0.0111,0.0094,0.0092,0.0102,0.0072,0.0068,0.0068,0.0028,0.0023,0.0049,0.0048,-0.0007,-0.0013,-0.0018,-0.0015,-0.0041,-0.0043,-0.0045,-0.0094,-0.0093,-0.0093,0,0,0,0,0,0,0.0123,0.0121,0.0096,0.0101,0.0096,0.0072,0.0072,0.0067,0.006,0.0025,0.0019,0.0047,-0.0008,-0.0015,-0.0032,-0.0019,-0.0044,-0.0047,-0.0094,-0.0094,-0.0093,-0.0024,0,0,0,0,0,0,0.0124,0.0122,0.0125,0.0102,0.0097,0.009,0.0072,0.0066,0.0058,0.0056,0.0021,0.0015,-0.0008,-0.0028,-0.0035,-0.0023,-0.0049,-0.0094,-0.0094,-0.0093,-0.0026,-0.0021,-0.0017,0,0,0,0,0,0.0125,0.0134,0.0126,0.0124,0.0102,0.0091,0.0086,0.0067,0.0059,0.006,0.0036,0.0017,-0.0031,-0.003,-0.0038,-0.0026,-0.0094,-0.0094,-0.0093,-0.0028,-0.0022,-0.0017,0,0,0,0,0,0,0.0143,0.0131,0.0122,0.0126,0.0113,0.0087,0.0087,0.0072,0.0053,0.0053,0.0018,0.001,-0.0001,-0.0026,-0.0024,-0.0041,-0.0066,-0.0067,-0.0014,-0.0008,-0.0004,0.0017,-0.0051,0,0,0,0,0,0.0149,0.0154,0.0136,0.0139,0.0135,0.0111,0.0104,0.0092,0.0073,0.0065,0.004,0.0014,-0.0007,-0.0016,-0.0041,-0.0049,-0.0081,-0.0048,-0.0043,-0.0039,-0.0028,-0.0065,-0.0063,-0.0092,-0.0092,-0.0092,0,0,0.0157,0.0151,0.0153,0.0143,0.0131,0.0138,0.0107,0.0103,0.011,0.0061,0.006,0.0028,-0.0007,-0.0015,-0.0022,-0.0032,-0.005,-0.0039,-0.0034,-0.0026,-0.0065,-0.0062,-0.0059,-0.0092,-0.0092,-0.0092,0,0,0.018,0.017,0.0185,0.018,0.017,0.0158,0.0161,0.0139,0.0131,0.0122,0.0091,0.007,0.0035,0.0018,0.0004,0.0019,-0.0026,0.0006,0.0052,0.0016,0.0018,0.002,-0.0025,-0.0028,0.0012,0.0012,0.0012,0,0.019,0.0208,0.0186,0.0201,0.0207,0.0173,0.0195,0.0181,0.0156,0.0155,0.0132,0.0085,0.0054,0.005,0.0055,0.0032,-0.0002,0.0036,0.0023,0.0024,0.0025,-0.0021,-0.0025,0.0016,0.0015,0.0015,0.0014,0,0.0227,0.0243,0.0251,0.0264,0.0264,0.0276,0.0261,0.0257,0.0239,0.0221,0.0205,0.0157,0.0132,0.0116,0.009,0.0084,0.0053,0.0032,0.0014,0.0032,-0.0018,-0.0023,0.002,0.0019,0.0018,0.0017,0,0,0.0249,0.0275,0.0279,0.0304,0.0303,0.0311,0.0324,0.0327,0.034,0.0298,0.0307,0.0262,0.0228,0.021,0.0169,0.0138,0.0107,0.0093,0.0089,0.0057,0.0017,0.0001,-0.0008,0.0082,0.0081,0.0081,-0.0022,0,0.0288,0.0339,0.0339,0.0389,0.0417,0.04,0.0417,0.0412,0.0394,0.0389,0.0334,0.0321,0.0266,0.0255,0.0216,0.0134,0.0097,0.0136,-0.0003,-0.0007,-0.0017,-0.0012,0.008,-0.0026,-0.0028,-0.0029,-0.0029,0,0.0327,0.036,0.042,0.0466,0.0476,0.0498,0.0525,0.0537,0.0515,0.0499,0.0469,0.0417,0.037,0.0318,0.0193,0.0218,0.0129,0.0059,0.0053,0.0013,-0.0033,-0.005,-0.0039,-0.0039,-0.0038,-0.0037,-0.0037,0,0.0362,0.0418,0.0473,0.0488,0.0528,0.0553,0.0572,0.057,0.0592,0.0571,0.057,0.0497,0.0459,0.0346,0.0196,0.0194,0.0046,0.0023,-0.0078,-0.0081,-0.0065,-0.0066,-0.0062,-0.0062,-0.0062,-0.0062,-0.0061,0,0.0404,0.0449,0.0497,0.0528,0.0596,0.0604,0.0664,0.0667,0.0679,0.0704,0.0632,0.0618,0.0463,0.0356,0.0219,0.0053,0.006,-0.0067,-0.0104,-0.0036,-0.0033,-0.007,-0.007,-0.0066,-0.0065,-0.0064,-0.0063,0,0.043,0.0462,0.0531,0.059,0.0615,0.0662,0.0733,0.077,0.0771,0.08,0.0796,0.0706,0.0562,0.0395,0.02,0.0086,-0.0071,-0.0133,-0.0051,-0.0082,-0.0182,-0.0177,-0.0249,-0.025,-0.0251,-0.0252,-0.0253,0,0.0447,0.0485,0.0574,0.0619,0.0651,0.0725,0.0774,0.0812,0.0851,0.0845,0.0855,0.0739,0.0652,0.0371,0.0187,-0.0071,-0.011,-0.0194,-0.0183,-0.017,-0.0199,-0.0192,-0.0186,-0.0255,-0.0255,-0.0256,-0.0256,0,0.0472,0.0504,0.0559,0.0653,0.0721,0.0806,0.0877,0.0913,0.0948,0.0954,0.0902,0.0758,0.0592,0.0371,0.017,-0.0016,-0.0138,-0.0207,-0.0205,-0.0196,-0.0178,-0.0205,-0.0197,-0.026,-0.0259,-0.0259,-0.0259,0,0.0483,0.0521,0.0591,0.0676,0.0766,0.0848,0.0895,0.0935,0.0975,0.0968,0.0944,0.077,0.0675,0.0398,0.0211,0.0029,-0.0021,-0.008,-0.0087,-0.0085,-0.0008,0.0039,-0.0002,0,0,0,0,0,0.0488,0.0529,0.0605,0.0698,0.079,0.0849,0.0941,0.0979,0.1014,0.0988,0.0973,0.0819,0.0543,0.0424,0.0239,0.0173,-0.0063,-0.0052,-0.0137,-0.0282,-0.0277,-0.0217,0,0,0,0,0,0,0.0486,0.0554,0.0596,0.0699,0.0767,0.0873,0.0937,0.0969,0.0958,0.0961,0.0822,0.0763,0.0498,0.0647,0.0231,0.0175,0.0093,-0.0175,-0.0179,-0.0284,-0.028,-0.0276,-0.0213,0,0,0,0,0]}]]